Regional Weather Roundup
Issued by NWS Bismarck, ND

Home | Current Version | Previous Version | Text Only | Print | Product List | Glossary On
Versions: 1 2 3 4 5 6 7 8 9 10 11 12 13 14 15 16 17 18 19 20 21 22 23 24 25 26 27 28 29 30 31 32 33 34 35 36 37 38 39 40 41 42 43 44 45 46 47 48 49 50
000
ASUS43 KBIS 240659
RWRBIS

NWR BROADCAST TEXT
NATIONAL WEATHER SERVICE BISMARCK ND
100 AM CST MON NOV 24 2014

NOTE: "FAIR" INDICATES FEW OR NO CLOUDS BELOW 12,000 FEET WITH NO
SIGNIFICANT WEATHER AND/OR OBSTRUCTIONS TO VISIBILITY.


CITY           SKY/WX    TMP DP  RH WIND       PRES   REMARKS
WILLISTON      CLEAR      9   5  84 NE5       29.82S WCI   1
MINOT          CLEAR      8   2  76 NW15      29.76F WCI  -9
MINOT AFB      NOT AVBL
BISMARCK       FLURRIES  17  11  77 NW16      29.73S WCI   2
DICKINSON      NOT AVBL
GARRISON         N/A     10   6  84 NW14      29.75S WCI  -6
HETTINGER ARPT CLOUDY    18  14  84 NW15      29.74F WCI   4
JAMESTOWN      NOT AVBL
CARRINGTON     CLOUDY    14  10  85 NW16G26   29.66R WCI  -2
CROSBY         FAIR       5   3  92 CALM      29.83R
OAKES          FLURRIES  16  14  93 NW20      29.60F WCI  -1
$$

CITY           SKY/WX    TMP DP  RH WIND       PRES   REMARKS
GRAND FORKS    LGT SNOW  15  10  80 N24G30    29.60S WCI  -4
GRAND FORKS AF CLOUDY    14   9  79 N21G29    29.61S WCI  -4
DEVILS LAKE    CLOUDY    12   1  62 N15G22    29.64R WCI  -4
FARGO          LGT SNOW  17  12  80 NW21      29.58F WCI   0
GRAFTON        FLURRIES  14   9  79 N21G36    29.63R WCI  -4
ROLLA          FAIR       5   1  85 NW24G36   29.67S WCI -17
$$

CITY           SKY/WX    TMP DP  RH WIND       PRES   REMARKS
ABERDEEN       CLOUDY    19  10  68 NW20      29.64S WCI   3
MOBRIDGE       CLOUDY    23  15  71 NW26G36   29.63F WCI   6
BUFFALO          N/A     18  14  84 NW10      29.68R WCI   6
RAPID CITY     PTCLDY    31  20  63 N15       29.72S
GLASGOW        CLOUDY    18  14  84 E7        29.80R WCI   9
SIDNEY         CLOUDY    14  14 100 W6        29.83S WCI   5
WOLF POINT     PTCLDY    13   8  81 CALM      29.84S
GLENDIVE       CLEAR      9   5  85 W7        29.80F WCI  -3
MILES CITY     CLOUDY    22  19  89 NE3       29.80S
BAKER          CLEAR     16  13  88 W10       29.77F WCI   4
$$

CITY           SKY/WX    TMP DP  RH WIND       PRES   REMARKS
BILLINGS       CLOUDY    39  22  50 W22       29.81F
GREAT FALLS    CLOUDY    35  24  64 SW12      29.81R
$$




USA.gov is the U.S. government's official web portal to all federal, state and local government web resources and services.